SCP
0 0 0 0 0 0 0 0 0 0 0 0 0 0 0 0 0 0 0 0 0 0 0 0 0 0 0 0 0 0 0 0 0 0 0 0 0 1
0 0 0 0 0 0 0 0 0 0 0 0 0 0 0 0 0 0 0 0 0 0 0 0 0 0 0 0 0 0 0 0 0 0 0 0 0 0
0 0 0 0 0 0 0 0 0 0 0 0 0 0 0 0 0 0 0 0 0 0 0 0 0 0 0 0 0 0 0 0 0 0 0 0 0 0
0 0 0 0 0 0 0 0 0 0 0 0 0 0 0 0 0 0 0 0 0 0 0 0 0 0 0 0 0 0 0 0 0 0 0 0 0 0
0 0 0 0 0 0 0 0 0 0 0 0 0 0 0 0 0 0 0 0 0 0 0 0 0 0 0 0 0 0 0 0 0 0 0 0 0 0
0 0 0 0 0 0 0 0 0 0 0 0 0 0 0 0 0 0 0 0 0 0 0 0 0 0 0 0 0 0 0 0 0 0 0 0 0 0
0 0 0 0 0 0 0 0 0 0 0 0 0 0 0 0 0 0 0 0 0 0 0 0 0 0 0 0 0 0 0 0 0 0 0 0 0 0
0 0 0 0 0 0 0 0 0 0 0 0 0 0 0 0 0 0 0 0 0 0 0 0 0 0 0 0 0 0 0 0 0 0 0 0 0 0
0 0 0 0 0 0 0 0 0 0 0 0 0 0 0 0 0 0 0 0 0 0 0 0 0 0 0 0 0 0 0 0 0 0 0 0 0 0
0 0 0 0 0 0 0 0 0 0 0 0 0 0 0 0 0 0 0 0 0 0 0 0 0 0 0 0 0 0 0 0 0 0 0 0 0 0
0 0 0 0 0 0 0 0 0 0 0 0 0 0 0 0 0 0 0 0 0 0 0 0 0 0 0 0 0 0 0 0 0 0 0 0 0 0
0 0 0 0 0 0 0 0 0 0 0 0 0 0 0 0 0 0 0 0 0 0 0 0 0 0 0 0 0 0 0 0 0 0 0 0 0 0
0 0 0 0 0 0 0 0 0 0 0 0 0 0 0 0 0 0 0 0 0 0 0 0 0 0 0 0 0 0 0 0 0 0 0 0 0 0
0 0 0 0 0 0 0 0 0 0 0 0 0 0 0 0 0 0 0 0 0 0 0 0 0 0 0 0 0 0 0 0 0 0 0 0 0 0
0 0 0 0 0 0 0 0 0 0 0 0 0 0 0 0 0 0 0 0 0 0 0 0 0 0 0 0 0 0 0 0 0 0 0 0 0 0
0 0 0 0 0 0 0 0 0 0 0 0 0 0 0 0 0 0 0 0 0 0 0 0 0 0 0 0 0 0 0 0 0 0 0 0 0 0
0 0 0 0 0 0 0 0 0 0 0 0 0 0 0 0 0 0 0 0 0 0 0 0 0 0 0 0 0 0 0 0 0 0 0 0 0 0
0 0 0 0 0 0 0 0 0 0 0 0 0 0 0 0 0 0 0 0 0 0 0 0 0 0 0 0 0 0 0 0 0 0 0 0 0 0
0 0 0 0 0 0 0 0 0 0 0 0 0 0 0 0 0 0 0 0 0 0 0 0 0 0 0 0 0 0 0 0 0 0 0 0 0 0
0 0 0 0 0 0 0 0 0 0 0 0 0 0 0 0 0 0 0 0 0 0 0 0 0 0 0 0 0 0 0 0 0 0 0 0 0 0
0 0 0 0 0 0 0 0 0 0 0 0 0 0 0 0 0 0 0 0 0 0 0 0 0 0 0 0 0 0 0 0 0 0 0 0 0 0
0 0 0 0 0 0 0 0 0 0 0 0 0 0 0 0 0 0 0 0 0 0 0 0 0 0 0 0 0 0 0 0 0 0 0 0 0 0
0 0 0 0 0 0 0 0 0 0 0 0 0 0 0 0 0 0 0 0 0 0 0 0 0 0 0 0 0 0 0 0 0 0 0 0 0 0
Wind_Speed
1 1 2 2 2 2 2 2 2 3 4 3 2 2 2 2 4 2 3 7 9 9 9 8 8 8 8 8 9 9 9 9 9 10 10 11 11 11
1 1 2 2 1 1 2 2 2 3 4 2 3 3 2 3 5 3 4 8 8 9 9 9 8 8 8 8 9 9 9 9 9 10 11 11 11 11
2 2 3 2 2 2 2 2 2 2 4 4 3 2 2 3 3 3 3 3 4 8 9 8 8 8 8 8 9 9 9 10 10 10 11 11 11 11
3 3 3 2 3 2 2 3 3 3 4 5 3 3 3 3 3 3 4 3 3 7 8 8 8 8 8 8 8 9 9 9 10 10 10 10 11 11
4 4 4 3 4 3 3 3 3 3 3 4 4 3 2 2 2 3 3 3 4 5 7 7 8 8 8 8 8 8 9 9 9 9 9 10 10 11
4 4 4 4 5 4 4 4 3 3 3 3 4 3 3 2 2 3 4 3 3 4 5 6 7 8 8 8 8 8 8 8 8 9 9 9 9 10
3 4 4 6 6 5 4 3 3 3 3 3 4 3 3 2 3 2 4 4 4 3 3 3 3 3 4 7 8 8 8 8 8 8 9 8 8 9
4 4 4 5 6 7 8 8 6 5 4 4 4 5 5 4 3 3 3 3 4 2 2 4 2 4 4 3 7 8 8 8 8 8 8 8 8 8
4 4 4 4 5 4 6 8 7 9 8 5 6 6 5 5 4 4 4 4 5 3 2 4 3 4 4 5 9 8 8 8 7 8 8 8 8 8
5 5 5 4 4 5 4 4 4 5 6 5 5 6 5 4 4 4 4 4 3 2 2 4 3 4 4 4 8 8 8 8 7 7 8 8 8 9
4 4 4 4 7 7 4 4 5 5 6 7 7 7 7 7 4 2 2 2 4 3 2 2 2 3 3 3 5 7 7 7 7 7 8 8 8 7
3 4 6 6 8 7 4 4 5 5 3 3 4 4 4 4 5 3 3 3 3 3 2 2 2 2 3 2 2 2 3 6 7 7 8 8 8 4
3 3 4 8 8 8 6 4 6 5 2 2 3 2 2 2 2 2 3 3 4 4 2 1 1 1 3 3 3 2 2 2 3 4 6 7 7 5
4 3 4 8 8 8 6 6 6 4 1 2 2 2 2 2 2 2 3 3 4 5 4 3 2 2 3 4 4 3 2 2 2 2 2 5 6 7
4 6 7 7 6 5 6 6 3 1 1 2 3 3 3 3 3 2 2 2 3 3 3 3 3 3 3 4 4 3 3 3 2 2 2 2 3 3
3 5 6 6 4 5 4 2 1 2 2 3 3 3 2 2 2 2 2 2 2 3 3 3 3 3 3 4 4 4 3 3 2 2 2 3 3 2
3 2 1 1 2 2 2 2 2 2 2 2 2 3 3 2 2 2 2 2 2 3 3 2 2 2 4 4 3 4 3 3 3 3 3 3 3 3
3 2 2 2 2 2 2 2 2 2 2 2 3 3 3 3 3 2 2 2 3 3 3 2 1 1 1 2 5 4 3 3 3 2 2 3 4 3
2 2 2 2 2 2 2 3 3 3 3 2 3 3 3 3 3 2 2 2 3 3 3 2 2 2 2 4 3 4 3 3 2 3 3 3 5 4
2 3 3 3 3 3 3 3 3 2 2 2 2 3 3 3 3 3 3 3 3 3 3 2 2 3 4 4 3 3 4 4 3 4 4 3 4 6
3 3 3 3 3 3 3 3 3 3 3 3 3 3 3 3 3 3 3 4 3 3 3 3 3 4 3 1 3 3 3 5 5 4 4 3 4 3
3 3 3 3 3 3 3 3 3 3 3 3 3 3 3 3 3 3 3 3 3 3 3 3 2 2 1 2 4 5 4 4 5 7 8 7 4 3
3 3 3 3 3 3 3 3 4 3 3 3 3 3 3 3 3 3 3 3 3 3 3 2 2 2 2 3 3 4 5 4 3 3 4 6 8 9
Wind_Direction
223 228 239 237 227 230 222 218 225 264 272 251 264 265 275 285 297 295 288 298 300 297 294 291 289 289 289 288 288 290 292 291 286 282 280 280 278 279
232 223 243 258 253 247 233 236 235 243 265 266 257 274 281 291 300 298 284 301 297 295 292 289 288 285 285 285 285 287 286 289 284 282 281 281 284 278
238 234 246 250 246 254 251 239 240 235 257 277 272 282 278 274 291 291 286 280 285 290 292 290 289 288 288 286 283 285 285 286 283 280 282 286 285 288
232 233 247 250 247 248 245 243 240 237 245 270 280 278 274 274 281 288 294 296 286 292 294 291 292 290 289 289 289 286 285 284 283 281 280 283 285 286
233 230 238 236 247 248 245 243 242 252 250 261 274 276 279 281 290 291 288 285 290 294 297 293 294 295 294 293 291 290 286 281 280 280 279 280 283 285
237 234 234 231 240 242 245 240 240 247 253 258 269 276 275 275 268 280 295 288 287 293 292 294 296 298 294 293 293 290 286 284 282 284 283 280 280 281
240 240 242 249 254 253 251 241 240 247 251 257 267 275 269 264 260 258 276 290 283 266 278 285 289 285 287 289 291 289 288 290 293 291 291 287 283 282
246 249 252 251 259 269 270 264 254 247 247 249 262 259 260 255 258 256 265 285 284 261 267 281 272 272 273 267 284 289 288 290 291 292 291 290 287 287
244 248 260 261 267 261 269 273 268 268 262 253 251 253 254 248 247 255 253 259 263 261 273 276 266 266 269 273 281 284 287 288 286 287 290 291 292 294
241 238 244 251 257 260 255 259 257 261 264 259 249 252 256 250 239 245 253 268 271 264 239 267 268 265 277 271 275 278 284 285 284 285 288 293 296 297
250 246 247 247 264 272 263 259 267 268 273 271 268 267 270 267 261 249 250 268 276 263 231 251 273 281 275 270 280 283 286 289 289 291 291 293 298 299
256 255 259 264 267 273 260 251 263 269 272 279 277 277 274 266 267 248 235 252 271 267 228 233 270 303 296 279 278 287 286 288 293 293 292 294 298 296
257 258 261 271 273 277 277 258 268 280 269 267 279 283 282 270 264 254 240 238 248 253 239 232 256 261 264 289 294 283 276 279 284 282 289 294 293 289
255 255 262 273 278 282 284 282 289 302 278 265 267 269 266 264 265 261 258 254 250 251 248 233 241 239 257 274 280 291 288 274 270 278 283 297 293 292
262 271 279 282 286 282 286 289 296 290 263 265 263 266 264 264 269 274 279 276 282 274 258 243 237 245 244 255 271 280 293 288 267 266 278 283 281 283
277 277 281 284 290 289 288 294 289 259 263 259 267 271 270 264 264 264 270 282 287 290 281 262 246 237 249 254 256 269 265 272 291 287 285 279 277 266
274 267 264 271 275 277 278 277 275 283 287 278 272 275 273 268 268 261 260 266 263 269 281 284 266 254 246 242 256 259 260 264 263 279 286 284 268 255
284 265 262 261 268 276 280 283 275 271 271 271 265 263 265 265 268 265 259 255 261 261 258 262 275 308 305 272 233 246 257 264 271 268 262 275 283 271
264 255 256 255 261 265 265 268 273 270 267 263 264 265 267 266 263 261 255 256 260 261 260 256 252 252 276 288 283 234 241 269 280 278 264 258 272 282
255 252 253 254 254 255 258 265 270 270 266 263 262 261 261 264 265 263 261 262 262 266 269 261 243 236 241 259 271 275 265 258 261 271 274 271 271 282
258 254 251 250 250 249 253 257 260 263 264 262 258 255 254 257 260 260 261 269 272 262 263 265 260 273 268 265 275 278 275 272 269 264 267 276 284 284
259 256 253 251 249 248 251 255 259 261 262 260 257 254 251 250 251 254 255 259 262 262 265 272 280 282 256 252 267 279 287 295 295 291 277 260 251 255
257 256 253 250 248 247 247 249 252 255 256 259 259 256 253 253 250 248 250 252 257 263 268 275 282 272 259 254 264 276 285 295 302 304 293 284 275 272